Home   Weather   Radebeul   Past weeks

Flag for Germany Past Weather in Radebeul, Saxony, Germany — Yesterday and Last 2 Weeks

50 °F

Light rain. Fog.

Feels Like: 49 °F
Forecast: 42 / 51 °F
Wind: 3 mph from West

Location: Dresden-Klotzsche

Current Time: Oct 25, 2016 at 5:19:04 AM

Latest Report: Oct 25, 2016 at 4:50 AM

Visibility: 2 mi

Pressure: 29.98 "Hg

Humidity: 100%

Dew Point: 50 °F

Location of RadebeulLocation

Past Weather in Radebeul — Graph


Radebeul Temperature Yesterday

Maximum temperature yesterday: 52 °F (at 12:20 PM)
Minimum temperature yesterday: 45 °F (at 12:20 AM)
Average temperature yesterday: 49 °F

High & Low Weather Summary for the Past Weeks

High63 °F (Oct 16, 2:50 PM)100% (Oct 10, 8:20 AM)30.27 "Hg (Oct 10, 8:20 AM)
Low36 °F (Oct 11, 6:50 AM)64% (Oct 16, 2:50 PM)29.80 "Hg (Oct 15, 1:20 AM)
Average47 °F90%30.04 "Hg
* Reported Oct 10 3:20 AM — Oct 25 3:50 AM, Radebeul, Weather by CustomWeather, © 2016

Note: Actual official high and low records may vary slightly from our data, if they occured in-between our weather recording intervals... More about our weather records


Radebeul Weather History for the Previous 24 Hours

Scroll right to see more
Time TempWeatherWind HumidityBarometerVisibility
3:50 AM
Tue, Oct 25
50 °FLight rain. Fog.2 mph100%29.98 "Hg2 mi
3:20 AM50 °FLight rain. Fog.3 mph100%29.98 "Hg2 mi
2:50 AM50 °FLight rain. Fog.5 mph100%29.98 "Hg2 mi
2:20 AM50 °FLight rain. Fog.7 mph100%29.98 "Hg2 mi
1:50 AM50 °FFog.1 mph100%29.95 "Hg2 mi
1:20 AM50 °FFog.2 mph100%29.95 "Hg3 mi
12:50 AM50 °FFog.2 mph94%29.95 "Hg3 mi
12:20 AM50 °FFog.3 mph94%29.95 "Hg3 mi
11:50 PM
Mon, Oct 24
50 °FPassing clouds.8 mph94%29.95 "Hg4 mi
11:20 PM50 °FClear.9 mph94%29.95 "Hg4 mi
10:50 PM50 °FClear.8 mph94%29.95 "Hg4 mi
10:20 PM50 °FFog.7 mph94%29.95 "Hg3 mi
9:50 PM52 °FFog.5 mph94%29.95 "Hg3 mi
9:20 PM50 °FLight rain. Fog.1 mph94%29.98 "Hg2 mi
8:50 PM50 °FLight rain. Mostly cloudy.5 mph94%29.95 "Hg4 mi
8:20 PM50 °FMostly cloudy.3 mph100%29.95 "Hg4 mi
7:50 PM50 °FLight rain. Fog.3 mph94%29.95 "Hg2 mi
7:20 PM50 °FLight rain. Fog.7 mph94%29.95 "Hg2 mi
6:50 PM50 °FLight rain. Fog.8 mph94%29.95 "Hg2 mi
6:20 PM50 °FLight rain. Fog.10 mph94%29.95 "Hg2 mi
5:50 PM50 °FLight rain. Fog.8 mph94%29.98 "Hg3 mi
5:20 PM50 °FRain. Fog.8 mph94%29.98 "Hg2 mi
4:50 PM50 °FRain. Fog.7 mph94%29.98 "Hg2 mi
4:20 PM50 °FLight rain. Cloudy.8 mph94%29.95 "Hg4 mi
3:50 PM50 °FLight rain. Mostly cloudy.8 mph94%29.98 "Hg4 mi
3:20 PM52 °FPartly sunny.6 mph88%29.98 "Hg5 mi
2:50 PM52 °FPartly sunny.7 mph88%30.01 "Hg6 mi
2:20 PM52 °FLight rain. Partly sunny.7 mph88%30.01 "HgN/A
1:50 PM52 °FPartly sunny.6 mph82%30.01 "HgN/A
1:20 PM52 °FPartly sunny.5 mph82%30.01 "HgN/A
12:50 PM52 °FPartly sunny.5 mph82%30.01 "HgN/A
12:20 PM52 °FPassing clouds.6 mph82%30.01 "HgN/A
11:50 AM50 °FPassing clouds.6 mph88%30.01 "HgN/A
11:20 AM50 °FClear.6 mph88%30.01 "Hg5 mi
10:50 AM50 °FClear.5 mph88%30.01 "Hg5 mi
10:20 AM48 °FClear.6 mph94%30.01 "Hg5 mi
9:50 AM48 °FClear.7 mph94%30.01 "Hg5 mi
9:20 AM48 °FClear.7 mph94%29.98 "Hg5 mi
8:50 AM46 °FSunny.6 mph93%29.98 "Hg10 mi
8:20 AM46 °FPassing clouds.7 mph93%29.98 "HgN/A
7:50 AM46 °FClear.10 mph93%29.98 "Hg5 mi
7:20 AM46 °FPartly cloudy.10 mph93%29.98 "Hg4 mi
6:50 AM46 °FLight rain. Passing clouds.12 mph93%29.98 "Hg4 mi
6:20 AM46 °FLight rain. Passing clouds.9 mph93%29.98 "HgN/A
5:50 AM46 °FLight rain. Overcast.9 mph93%29.98 "HgN/A
5:20 AM45 °FLight rain. Low clouds.9 mph100%29.95 "HgN/A
Weather by CustomWeather, © 2016

See weather overviewHow to use our weather pages